Regional Weather Roundup
Issued by NWS

Home | Current Version | Previous Version | Graphics & Text | Print | Product List | Glossary Off
Versions: 1 2 3 4 5 6 7 8 9 10 11 12 13 14 15 16 17 18 19 20 21 22 23 24 25 26 27 28 29 30 31 32 33 34 35 36 37 38 39 40 41 42 43 44 45 46 47 48 49 50

000
ASUS43 KMKX 200310
RWRWI

WISCONSIN REGIONAL WEATHER ROUNDUP
NATIONAL WEATHER SERVICE MILWAUKEE/SULLIVAN WI
1000 PM CDT THU APR 19 2018

NOTE: "FAIR" INDICATES FEW OR NO CLOUDS BELOW 12,000 FEET WITH NO
SIGNIFICANT WEATHER AND/OR OBSTRUCTIONS TO VISIBILITY.

WIZ001-002-006>008-014>016-023>028-200400-
NORTHWEST WISCONSIN

CITY           SKY/WX    TMP DP  RH WIND       PRES   REMARKS
SUPERIOR ARPT  FAIR      44  17  33 SW6       30.39S
ASHLAND        FAIR      32  17  54 S6        30.40S WCI  26
HAYWARD        FAIR      33  20  58 CALM      30.41R
SIREN          FAIR      37  20  50 CALM      30.42S
CUMBERLAND     FAIR      36  19  51 CALM      30.42S
RICE LAKE      FAIR      36  22  57 CALM      30.44S
CHETEK         FAIR      35  22  59 CALM      30.43S
LADYSMITH      FAIR      40  16  37 W3        30.43S
EAU CLAIRE     FAIR      35  22  58 CALM      30.43F
MENOMONIE      FAIR      39  20  45 CALM      30.43F
NEW RICHMOND   FAIR      36  19  50 SW3       30.44S
OSCEOLA        FAIR      37  23  57 CALM      30.46S
$$

WIZ003>005-009-010-017-018-200400-
NORTH CENTRAL WISCONSIN

CITY           SKY/WX    TMP DP  RH WIND       PRES   REMARKS
MANITOWISH WTR FAIR      27  12  53 CALM      30.39S
ARBOR VITAE    FAIR      32  16  51 CALM      30.39S
WOODRUFF       FAIR      32  16  51 CALM      30.39S
RHINELANDER    FAIR      32  14  47 CALM      30.39S
EAGLE RIVER    FAIR      29  15  56 CALM      30.39S
LAND O LAKES   FAIR      26  14  60 CALM      30.40S
PHILLIPS       FAIR      31  19  61 CALM      30.40R
TOMAHAWK       FAIR      26  17  69 CALM      30.40S
MEDFORD        FAIR      38  19  45 W7        30.40S WCI  33
MERRILL          N/A     37  16  42 CALM      30.40S
$$

WIZ029-030-035-036-043>047-200400-
CENTRAL WISCONSIN

CITY           SKY/WX    TMP DP  RH WIND       PRES   REMARKS
WAUSAU         FAIR      40  22  48 NW6       30.39S
MOSINEE        PTCLDY    37  21  52 NW5       30.41S WCI  34
MARSHFIELD     FAIR      38  19  46 W7        30.41R WCI  33
STEVENS POINT  FAIR      34  20  57 CALM      30.42R
WAUPACA        FAIR      43  19  39 W5        30.41R
WAUTOMA        FAIR      36  20  52 W5        30.42S WCI  32
WISC RAPIDS    FAIR      34  17  50 SW3       30.43R
CAMP DOUGLAS   FAIR      31  22  68 W5        30.43S WCI  26
$$

WIZ011>013-019>022-031-037>040-048>050-200400-
NORTHEAST WISCONSIN

CITY           SKY/WX    TMP DP  RH WIND       PRES   REMARKS
ANTIGO         FAIR      33  18  52 N3        30.39S
SHAWANO        FAIR      37  23  58 CALM      30.39R
OCONTO         FAIR      31  20  63 CALM      30.39S
STURGEON BAY   FAIR      36  17  46 CALM      30.40R
GREEN BAY      FAIR      34  25  69 CALM      30.39R
MANITOWOC      FAIR      35  24  64 CALM      30.40R
APPLETON       CLEAR     39  19  45 W9        30.38R WCI  33
CLINTONVILLE   FAIR      35  21  56 CALM      30.40R
OSHKOSH        FAIR      42  20  41 W6        30.40R
$$

WIZ032>034-041-042-053>061-200400-
SOUTHWEST WISCONSIN

CITY           SKY/WX    TMP DP  RH WIND       PRES   REMARKS
LA CROSSE      FAIR      36  28  73 CALM      30.45S
SPARTA         FAIR      29  23  77 CALM      30.46S
VIROQUA        FAIR      39  23  53 CALM      30.44S
BOSCOBEL       FAIR      32  26  78 CALM      30.46S
PRAIRIE DU CHI FAIR      33  26  76 CALM      30.46S
PLATTEVILLE    FAIR      38  27  64 N3        30.45S
$$

WIZ056-057-062-063-064-067-068-200400-
SOUTH CENTRAL WISCONSIN

CITY           SKY/WX    TMP DP  RH WIND       PRES   REMARKS
REEDSBURG      FAIR      35  24  64 CALM      30.44R
BARABOO/DELLS  FAIR      33  22  65 CALM      30.43S
LONE ROCK      FAIR      32  27  81 CALM      30.45S
MINERAL POINT  FAIR      41  23  48 CALM      30.44S
MADISON        FAIR      37  24  59 CALM      30.43S
MIDDLETON      FAIR      35  26  69 CALM      30.44S
WATERTOWN      FAIR      35  26  70 CALM      30.42R
MONROE         FAIR      41  23  48 NW5       30.43S
JANESVILLE     FAIR      36  27  69 CALM      30.44S
$$

WIZ051-052-058>065-066-070>072-200400-
SOUTHEAST WISCONSIN

CITY           SKY/WX    TMP DP  RH WIND       PRES   REMARKS
MILWAUKEE      FAIR      43  27  53 W6        30.42R
WAUKESHA       FAIR      36  25  64 W8        30.42S WCI  29
MILWAUKEE/TIMM FAIR      37  23  56 W5        30.42S WCI  34
RACINE         FAIR      40  25  55 W6        30.43R
BURLINGTON     FAIR      32  24  72 SW3       30.42F
KENOSHA        FAIR      36  24  62 W6        30.42R WCI  31
FOND DU LAC    FAIR      38  23  55 SW3       30.41R
SHEBOYGAN      FAIR      38  27  64 W6        30.39S WCI  33
WEST BEND      FAIR      37  27  65 W3        30.41R
JUNEAU         FAIR      34  25  69 SW3       30.43R
$$

LSZ147-162-200400-
LAKE SUPERIOR

STATION/POSITION TIME  TEMP    WIND        PRES    WAVE
                       AIR SEA DIR/SP/G            HT/PER
                 (UTC) (F)     (DEG/KT/KT) (MB)    (FT/S)
DEVILS ISLAND    0300   47     170/  5/  6 1029.5R
SAXON HARBOR     0240   34     190/  4/  6 1028.4S
$$

LMZ867-665-643>646-200400-
LAKE MICHIGAN

STATION/POSITION TIME  TEMP    WIND        PRES    WAVE
                       AIR SEA DIR/SP/G            HT/PER
                 (UTC) (F)     (DEG/KT/KT) (MB)    (FT/S)
NORTHPORT PIER   0240   38                 1028.4S
KEWAUNEE LAKESHO 0242   34     300/  3/  4 1028.2R
SHEBOYGAN LAKESH 0300   44     270/ 11/ 13 1029.5R
PORT WASHINGTON  0240   43     280/  6/  9 1030.1S
MILWAUKEE LAKESH 0250   44     290/  8/  9   N/A
KENOSHA   LAKESH 0300   42                 1029.8
$$

TC  - TEMPERATURE IN CELSIUS
VSB - VISIBILITY IN STATUTE MILES
WCI - WIND CHILL INDEX
HX  - HEAT INDEX





USA.gov is the U.S. government's official web portal to all federal, state and local government web resources and services.